Regional Weather Roundup
Issued by NWS Newport/Morehead, NC

Current Version | Previous Version | Text Only | Print | Product List | Glossary On
Versions: 1 2 3 4 5 6 7 8 9 10 11 12 13 14 15 16 17 18 19 20 21 22 23 24 25 26 27 28 29 30 31 32 33 34 35 36 37 38 39 40 41 42 43 44 45 46 47 48 49 50
000
ASUS42 KMHX 302110
RWRMHX
WEATHER ROUNDUP FOR EASTERN NORTH CAROLINA
NATIONAL WEATHER SERVICE NEWPORT/MOREHEAD CITY NC
400 PM EST FRI JAN 30 2015

NOTE: "FAIR" INDICATES FEW OR NO CLOUDS BELOW 12,000 FEET
WITH NO SIGNIFICANT WEATHER AND/OR OBSTRUCTIONS TO VISIBILITY

NCZ015>017-031-032-045>047-102-103-302200-
NORTH COAST

CITY           SKY/WX    TMP DP  RH WIND       PRES   REMARKS
EDENTON        CLOUDY    46  31  57 N9        30.03S
ELIZABETH CITY CLOUDY    43  28  55 NW10      30.03R
KITTY HAWK     CLOUDY    42  26  52 N8G18     30.01R
MANTEO         CLOUDY    43  28  56 NW13G18   30.03R

$$

NCZ045>047-081-094-103-104-302200-
CENTRAL COAST

CITY           SKY/WX    TMP DP  RH WIND       PRES   REMARKS
FRISCO         CLOUDY    43  29  57 NW9G17    30.03R
SWANQUARTER    NOT AVBL

$$

NCZ095-097-098-100-101-302200-
SOUTHERN COAST

CITY           SKY/WX    TMP DP  RH WIND       PRES   REMARKS
BEAUFORT       CLOUDY    48  25  40 NW17G25   30.06R
CEDAR ISLAND   NOT AVBL
JACKSONVILLE   MOSUNNY   49  21  33 NW17G25   30.07R
PINEY ISLAND     N/A    N/A N/A N/A MISG      30.04R
WILMINGTON     SUNNY     51  23  33 NW17G30   30.08R


$$

NCZ011>013-027>030-043-044-078>080-089-090>093-098-302200-
COASTAL PLAIN

CITY           SKY/WX    TMP DP  RH WIND       PRES   REMARKS
AHOSKIE        MOSUNNY   45  17  32 NW8G16    30.05R
CLINTON        SUNNY     49  22  33 NW8       30.11R
ELIZABETHTOWN  SUNNY     50  17  26 NW18      30.11R
GOLDSBORO      MOSUNNY   50  23  34 NW16G23   30.05S
GREENVILLE     MOSUNNY   48  18  29 NW10G24   30.08R
HAVELOCK       PTSUNNY   48  19  31 NW21G36   30.07R
KENANSVILLE    SUNNY     48  17  28 N17G25    30.10R
KINSTON        MOSUNNY   48  18  29 NW17G25   30.09R
NEW BERN       PTSUNNY   49  19  30 NW15G24   30.07R
RICHLANDS      MOSUNNY   48  19  32 W10G24    30.08R
ROCKY MOUNT    SUNNY     48  15  26 NW22G38   30.09R
WASHINGTON     MOSUNNY   47  19  33 NW12G20   30.06R
WHITEVILLE     SUNNY     51  21  30 W8        30.11R

$$

AMZ130-135-150-152-154-156-158-170-250-252-270-ANZ085-086-088-633-658-670-302200-
MARINE OBSERVATIONS

STATION/POSITION TIME  TEMP    WIND        PRES    WAVE   SWELL
                       AIR SEA DIR/SP/G            HT/PER HT/PER
                 (UTC) (F)     (DEG/KT/KT) (MB)    (FT/S) (FT/S)
CHESAPEAKE LIGHT 2000   39     330/ 31/ 33 1016.0
64 E VA BEACH    2100   42 49  330/ 29/ 35 1014.0    9/ 6   2/10
DUCK             2100   41 44   10/ 21/ 24 1015.2
2 E DUCK         2100      43                N/A     4/ 5
10 NE DUCK       2100      45                N/A     6/ 5
OREGON INLET     2100   42 42  330/ 13/ 18 1016.3
13E OREGON INLT  2100      43                N/A     6/ 6   2/11
HATTERAS CG      2100   43 46  330/ 17/ 19 1017.0
DIAMOND BUOY     2100   46 69  340/ 21/ 27 1016.1    6/ 6   2/11
17 S OCRACOKE    NOT AVBL
CAPE LOOKOUT     2100   47     320/ 15/ 19 1017.5
BEAUFORT LAB     2100   47 47  320/ 10/ 16 1016.6
27 SE WRIGHTSVLE NOT AVBL
5 SE WRIGHTSVLE  2000   50 52  320/ 16/ 19 1017.6
225 S CAPE HAT   2001   63 72  310/ 29/ 37 1013.3   14/ 8
41 SE CHARLESTON 2100   56 68  310/ 17/ 23 1018.9    5/ 5   2/ 9

$$


USA.gov is the U.S. government's official web portal to all federal, state and local government web resources and services.